SCP
0 0 0 0 0 0 0 0 0 0 0 0 0 0 0 0 0 0 1 1 1 1 1 1 2 2 1 1 1 1 1 1 1 1 1 1 2 2 1 1 1 1 1 1 1 1 1 1 1
0 0 0 0 0 0 0 0 0 0 0 0 0 0 0 0 0 1 1 1 1 1 1 1 2 1 1 1 1 1 1 1 1 1 1 1 1 1 1 1 1 1 1 1 1 1 1 1 1
0 0 0 0 0 0 0 0 0 0 0 0 0 0 0 0 0 1 1 1 1 1 1 1 2 2 2 1 1 1 1 1 1 1 1 1 1 1 1 1 1 1 1 0 0 0 0 1 1
0 0 0 0 0 0 0 0 0 0 0 0 0 0 0 0 0 1 1 1 1 1 1 2 2 2 2 2 2 1 1 1 1 1 1 1 1 1 1 1 1 1 1 1 0 0 1 1 1
0 0 0 0 0 0 0 0 0 0 0 0 0 0 0 1 1 1 1 1 1 1 1 2 2 2 2 2 2 2 1 1 1 1 1 1 1 1 1 1 1 1 1 1 1 0 1 1 1
0 0 0 0 0 0 0 0 0 0 0 0 0 0 1 1 1 1 1 1 1 1 1 1 1 1 1 2 2 2 2 2 1 1 1 1 1 1 1 2 2 1 1 1 0 0 0 0 0
0 0 0 0 0 0 0 0 0 0 0 0 0 0 1 2 2 1 1 1 1 1 1 1 1 1 1 1 1 2 2 2 2 1 1 1 1 1 1 2 2 2 1 1 0 0 0 0 0
0 0 0 0 0 0 0 0 0 0 0 0 0 0 1 1 1 1 1 1 1 1 1 1 1 1 1 1 1 1 1 1 1 1 1 1 1 1 1 1 2 2 1 1 0 0 0 0 0
0 0 0 0 0 0 0 0 0 0 0 0 0 0 0 1 1 1 0 0 1 1 1 1 1 1 1 1 1 1 1 1 1 1 1 1 1 1 1 1 1 1 1 1 0 0 0 0 0
0 0 0 0 0 0 0 0 0 0 0 0 0 0 0 1 1 1 0 0 0 1 1 1 1 0 0 0 0 0 1 1 1 1 1 1 1 1 1 1 1 1 1 0 1 1 0 0 0
0 0 0 0 0 0 0 0 0 0 0 0 0 0 0 0 1 1 0 0 0 0 1 1 0 0 0 0 0 0 0 0 0 0 0 0 1 1 0 0 0 0 0 0 0 0 0 0 0
0 0 0 0 0 0 0 0 0 0 0 0 0 0 0 0 0 0 0 0 0 0 0 0 0 0 0 0 0 0 0 0 0 0 0 0 0 0 0 0 0 0 0 0 0 0 0 0 0
0 0 0 0 0 0 0 0 0 0 0 0 0 0 0 0 0 0 0 0 0 0 0 0 0 0 0 0 0 0 0 0 0 0 0 0 0 0 0 0 0 0 0 0 0 0 0 0 0
0 0 0 0 0 0 0 0 0 0 0 0 0 0 0 0 0 0 0 0 0 0 0 0 0 0 0 0 0 0 0 0 0 0 0 0 0 0 0 0 0 0 0 0 0 0 0 0 0
0 0 0 0 0 0 0 0 0 0 0 0 0 0 0 0 0 0 0 0 0 0 0 0 0 0 0 0 0 0 0 0 0 0 0 0 0 0 0 0 0 0 0 0 0 0 0 0 0
0 0 0 0 0 0 0 0 0 0 0 0 0 0 0 0 0 0 0 0 0 0 0 0 0 0 0 0 0 0 0 0 0 0 0 0 0 0 0 0 0 0 0 0 0 0 0 0 0
0 0 0 0 0 0 0 0 0 0 0 0 0 0 0 0 0 0 0 0 0 0 0 0 0 0 0 0 0 0 0 0 0 0 0 0 0 0 0 0 0 0 0 0 0 0 0 0 0
0 0 0 0 0 0 0 0 0 0 0 0 0 0 0 0 0 0 0 0 0 0 0 0 0 0 0 0 0 0 0 0 0 0 0 0 0 0 0 0 0 0 0 0 0 0 0 0 0
0 0 0 0 0 0 0 0 0 0 0 0 0 0 0 0 0 0 0 0 0 0 0 0 0 0 0 0 0 0 0 0 0 0 0 0 0 0 0 0 0 0 0 0 0 0 0 0 0
0 0 0 0 0 0 0 0 0 0 0 0 0 0 0 0 0 0 0 0 0 0 0 0 0 0 0 0 0 0 0 0 0 0 0 0 0 0 0 0 0 0 0 0 0 0 0 0 0
0 0 0 0 0 0 0 0 0 0 0 0 0 0 0 0 0 0 0 0 0 0 0 0 0 0 0 0 0 0 0 0 0 0 0 0 0 0 0 0 0 0 0 0 0 0 0 0 0
0 0 0 0 0 0 0 0 0 0 0 0 0 0 0 0 0 0 0 0 0 0 0 0 0 0 0 0 0 0 0 0 0 0 0 0 0 0 0 0 0 0 0 0 0 0 0 0 0
0 0 0 0 0 0 0 0 0 0 0 0 0 0 0 0 0 0 0 0 0 0 0 0 0 1 0 0 0 0 0 0 0 0 0 0 0 0 0 0 0 0 0 0 0 0 0 0 0
0 0 0 0 0 0 0 0 0 0 0 0 0 0 0 0 0 0 0 0 0 0 0 0 0 0 1 0 0 0 0 0 0 0 0 0 0 0 0 0 0 0 0 0 0 0 0 0 0
0 0 0 0 0 0 0 0 0 0 0 0 0 0 0 0 0 0 0 0 0 0 0 0 0 0 0 0 0 0 0 0 0 0 0 0 0 0 0 0 0 0 0 0 0 0 0 0 0
0 0 0 0 0 0 0 0 0 0 0 0 0 0 0 0 0 0 0 0 0 0 0 0 0 0 0 0 0 0 0 0 0 0 0 0 0 0 0 0 0 0 0 0 0 0 0 0 0
0 0 0 0 0 0 0 0 0 0 0 0 0 0 0 0 0 0 0 0 0 0 0 0 0 0 0 0 0 0 0 0 0 0 0 0 0 0 0 0 0 0 0 0 0 0 0 0 0
0 0 0 0 0 0 0 0 0 0 0 0 0 0 0 0 0 0 0 0 0 0 0 0 0 0 0 0 0 0 1 0 0 0 0 0 0 0 0 0 0 0 0 0 0 0 0 0 0
0 0 0 0 0 0 0 0 0 0 0 0 0 0 0 0 0 0 0 0 0 0 0 0 0 0 0 0 0 0 1 1 1 0 0 0 0 0 0 0 0 0 0 0 0 0 0 0 0
0 0 0 0 0 0 0 0 0 0 0 0 0 0 0 0 0 0 0 0 0 0 0 0 0 0 0 0 0 0 1 1 1 0 0 0 0 0 0 0 0 0 0 0 0 0 0 0 0
Wind_Speed
8 5 2 4 5 3 2 4 3 1 0 0 2 5 5 3 2 3 0 3 6 5 5 7 8 10 10 10 10 10 10 10 11 11 11 10 10 10 10 10 10 11 11 11 12 12 12 11 11
3 2 4 5 4 1 4 4 3 3 3 1 3 4 5 3 2 3 1 2 6 6 5 6 7 9 10 10 10 10 10 10 10 10 10 10 9 10 10 10 10 11 11 11 11 11 11 10 10
3 1 4 4 3 5 4 3 4 2 2 2 3 3 3 3 1 1 1 4 6 6 5 6 7 8 9 10 9 9 10 10 10 10 10 10 9 9 10 10 10 10 10 10 11 10 10 9 9
2 4 4 3 4 6 4 3 2 1 1 2 3 3 3 2 1 1 2 5 6 5 5 6 7 7 8 8 9 8 9 9 9 9 10 10 9 10 10 10 10 10 9 10 10 10 9 9 9
4 4 3 1 5 5 3 3 2 2 1 1 3 3 2 2 3 3 3 5 6 5 4 5 7 7 7 7 7 8 8 9 8 8 9 9 9 10 10 10 10 9 9 9 9 9 9 8 8
4 4 3 4 5 4 3 2 1 1 1 1 2 3 2 1 3 2 3 4 5 5 4 4 6 6 6 5 5 6 8 8 8 8 8 9 9 9 9 9 9 9 9 8 8 8 8 7 8
4 3 3 4 4 4 3 1 1 1 1 0 1 4 1 1 1 2 4 5 5 5 4 3 3 4 4 5 5 5 7 7 7 8 8 8 8 8 8 8 8 8 8 8 8 7 7 7 7
4 3 2 2 3 3 2 0 1 2 1 1 2 5 3 2 1 3 4 5 5 5 4 3 2 2 2 3 5 5 5 6 7 7 7 7 7 7 7 6 7 8 8 8 7 7 7 7 6
3 3 3 3 3 2 1 1 2 1 3 2 2 2 2 4 5 5 4 4 4 3 3 2 2 1 2 2 4 4 4 5 6 6 7 6 4 4 4 5 7 8 8 7 7 7 6 6 5
3 3 5 2 1 1 1 1 1 2 2 2 2 3 3 4 5 5 4 3 2 1 1 1 1 1 1 2 2 2 3 3 3 3 4 4 3 3 3 5 6 6 6 6 7 7 6 4 3
2 4 3 1 1 1 1 1 1 2 1 3 3 1 2 3 3 3 3 3 2 2 1 1 1 1 1 1 2 2 2 2 3 4 4 4 3 3 2 2 2 3 4 2 3 4 2 2 2
1 2 2 1 1 1 1 1 1 0 4 3 2 3 3 2 3 3 3 2 2 2 1 1 1 1 1 1 2 2 2 2 2 3 5 4 3 3 2 2 2 2 2 2 2 2 2 2 2
2 2 2 1 1 0 0 1 1 3 4 2 1 2 3 2 2 1 2 1 1 2 2 1 1 2 2 2 2 2 2 2 3 3 4 4 4 3 3 2 2 1 2 2 2 2 2 2 2
2 1 3 4 3 1 1 2 1 5 3 0 1 1 2 2 2 0 0 0 1 1 1 1 2 2 2 2 2 2 2 2 2 2 3 4 4 4 3 2 2 2 2 2 3 3 3 2 1
1 2 4 3 2 2 1 4 4 6 1 1 1 2 1 1 1 1 1 1 1 1 0 1 2 2 2 2 2 2 2 2 2 2 2 3 3 4 4 3 2 2 2 2 2 3 2 2 1
1 1 3 4 1 1 3 7 6 3 2 3 3 2 1 1 0 0 0 0 0 0 0 0 1 1 2 2 2 2 2 2 2 2 2 3 3 3 3 3 2 2 2 2 2 2 2 2 1
1 1 3 4 1 0 3 7 6 3 2 4 4 3 2 0 1 1 1 0 0 1 1 1 1 2 2 2 2 2 2 2 2 1 1 2 2 3 3 3 2 2 2 2 2 2 2 2 1
4 3 3 4 3 1 3 7 7 4 3 5 4 3 2 1 2 1 1 1 0 0 1 1 1 1 1 2 2 2 2 2 2 1 1 2 2 2 3 2 2 3 2 2 2 2 2 2 2
3 2 4 5 3 2 5 9 8 6 3 4 5 4 3 2 1 1 1 2 2 2 2 1 2 1 2 1 1 2 1 1 1 2 2 2 2 2 3 2 2 2 2 2 3 2 2 1 1
3 4 4 4 2 2 4 9 7 5 4 5 5 4 4 2 1 2 2 2 3 2 2 2 2 2 1 1 1 1 2 1 2 2 2 2 2 1 2 2 2 2 2 2 2 3 2 1 1
5 6 5 4 4 2 2 7 5 4 2 2 2 3 3 4 3 0 2 2 2 2 2 1 1 2 2 2 2 2 2 2 2 1 1 2 1 1 2 2 2 2 2 2 2 3 3 2 1
6 4 4 3 1 3 1 5 7 4 3 3 3 2 2 2 2 1 1 1 1 1 1 2 2 2 2 2 2 3 2 1 0 0 1 1 2 2 1 1 2 2 2 2 2 3 2 3 2
4 2 2 3 2 3 2 4 9 2 4 6 4 3 3 3 3 2 1 1 1 1 1 2 2 3 3 2 2 2 2 1 1 1 1 1 1 2 2 2 1 1 1 1 1 2 2 2 3
2 2 2 2 2 4 6 6 8 5 7 4 3 3 3 3 3 2 1 1 2 2 2 2 3 3 3 3 2 2 2 2 2 1 1 0 0 1 1 1 1 0 0 1 1 1 2 2 2
2 4 2 3 2 8 3 5 10 6 4 5 5 4 3 3 3 2 1 1 2 2 2 2 3 3 2 3 3 2 1 2 1 1 1 1 0 0 0 0 1 1 0 1 1 1 1 2 2
4 6 6 6 6 5 3 8 7 4 2 2 3 3 3 3 3 3 2 2 1 1 2 2 2 2 2 2 2 2 2 1 1 0 0 1 1 1 1 1 1 1 0 1 1 1 1 1 1
4 5 4 3 1 3 6 6 6 2 2 2 2 3 4 4 4 4 3 2 1 1 1 1 1 1 2 2 2 2 2 1 1 0 0 0 0 0 0 1 1 0 0 0 1 1 1 1 1
4 4 3 4 4 5 6 6 6 5 7 5 4 4 4 4 3 3 2 2 1 1 1 1 1 1 1 1 1 1 1 1 1 1 1 1 1 0 1 1 1 1 1 1 1 1 1 1 1
4 3 4 4 4 5 5 8 6 7 7 7 6 5 5 5 4 3 3 2 2 1 1 1 1 1 1 1 1 1 1 1 1 1 1 1 1 0 1 1 1 1 1 1 1 1 1 2 1
4 6 6 5 6 5 5 9 2 3 4 4 5 4 4 4 4 4 3 2 2 1 1 0 1 1 1 1 1 1 1 1 1 1 1 1 1 1 1 1 1 1 1 2 2 2 2 2 2
Wind_Direction
330 332 48 59 59 60 238 247 236 251 44 319 83 94 97 90 118 145 155 107 122 136 153 157 155 149 145 142 142 141 138 135 133 128 124 121 119 117 113 110 109 107 105 103 101 98 95 94 93
325 341 55 64 95 152 252 245 221 225 193 145 62 78 83 77 62 103 86 126 129 138 138 146 148 148 147 146 145 145 142 140 139 135 130 127 124 120 117 115 110 107 106 106 104 100 97 96 93
320 43 84 87 143 189 218 230 218 230 196 117 68 54 92 114 100 138 186 140 123 131 133 135 132 141 147 149 149 151 147 145 143 140 135 132 128 122 118 115 110 108 107 108 106 102 98 94 91
45 47 59 90 217 226 213 233 205 195 15 64 106 79 67 59 149 173 153 134 124 129 134 136 132 132 139 146 151 152 149 147 145 143 139 136 132 126 122 117 114 111 109 108 107 105 99 95 92
64 79 80 241 240 248 232 237 197 168 141 50 105 114 81 3 48 90 116 123 125 124 126 135 130 131 134 140 150 153 150 148 146 144 141 138 136 130 126 123 119 116 113 110 107 104 98 95 93
63 76 121 220 236 258 257 246 169 131 142 58 94 114 132 30 53 62 96 112 119 120 119 128 130 126 127 135 141 146 146 145 146 144 140 137 133 130 128 126 123 121 120 117 111 105 101 96 93
116 120 189 213 228 259 262 269 149 159 118 260 129 119 138 337 36 73 83 92 95 100 105 111 124 129 127 126 130 134 140 142 143 141 137 130 126 124 125 126 126 124 123 120 116 111 107 100 94
136 123 212 223 215 248 286 59 114 129 173 337 84 134 187 231 119 88 79 81 84 81 85 92 94 106 121 127 120 124 129 135 136 131 127 124 123 123 122 125 128 127 126 122 117 114 108 100 90
100 103 215 225 209 246 309 74 344 24 91 43 50 125 179 136 117 97 81 67 70 70 65 70 78 93 117 131 125 122 122 125 125 126 124 120 115 119 126 127 127 127 125 126 122 115 105 95 86
100 181 222 233 214 220 345 69 261 43 28 15 21 26 77 109 122 125 129 134 126 117 78 79 82 99 126 137 128 125 121 120 121 124 123 117 115 116 122 127 127 128 126 126 125 117 103 90 81
151 202 223 292 300 293 314 340 347 140 268 230 210 195 117 120 129 147 167 167 180 180 158 173 178 142 142 143 137 132 128 126 130 132 131 122 113 111 103 109 119 122 121 115 116 108 100 99 103
181 261 238 252 331 349 311 316 356 195 224 226 201 168 146 150 169 182 192 200 189 180 194 202 175 162 169 157 151 146 141 141 144 146 142 136 131 128 129 121 122 133 130 129 121 116 111 107 106
220 265 299 287 320 260 13 265 242 270 255 260 166 139 166 182 197 200 185 178 180 194 208 206 182 175 170 159 159 148 152 153 152 151 153 148 145 148 148 143 129 143 145 143 140 133 123 117 112
212 241 295 288 273 250 199 282 248 264 256 251 135 176 180 178 195 172 82 154 226 233 233 203 186 176 161 162 164 157 154 154 147 148 155 154 149 150 152 148 144 152 158 152 149 144 135 130 121
326 324 315 291 246 228 152 304 245 247 228 235 221 200 201 223 163 170 212 210 218 225 263 224 187 162 156 161 160 146 144 138 139 148 147 146 148 155 154 153 155 165 154 143 130 127 122 126 115
24 42 286 287 213 204 156 262 268 259 190 233 240 226 223 254 109 21 237 223 228 151 102 260 144 135 145 150 152 139 141 138 136 140 144 140 144 151 149 153 165 159 143 140 135 132 126 133 127
18 256 255 291 274 164 190 254 273 269 212 237 242 237 215 238 344 339 348 228 244 194 158 125 105 128 147 148 135 120 120 127 131 127 131 138 139 142 145 155 159 147 139 136 140 131 141 146 141
224 233 255 259 282 334 261 263 282 278 227 234 246 245 215 208 263 300 348 0 345 126 142 118 100 98 113 122 103 94 92 99 103 110 109 118 130 134 140 144 141 137 130 133 137 136 120 130 131
189 206 258 265 275 268 255 269 278 276 242 238 246 230 219 225 272 20 22 32 41 38 57 81 81 74 98 118 128 126 118 106 89 85 77 94 111 135 132 132 132 127 139 151 149 138 130 115 113
241 262 270 290 289 257 271 277 279 263 237 224 223 217 212 189 45 27 24 39 50 47 45 66 65 75 92 119 148 130 125 108 95 83 74 71 82 111 125 126 142 142 136 140 150 139 141 135 134
237 228 240 262 319 314 314 297 273 267 242 235 219 208 195 176 176 143 29 30 51 45 34 48 58 62 63 67 87 84 77 67 55 54 66 51 68 88 97 127 136 144 147 156 168 161 154 164 173
243 232 222 238 275 281 168 281 275 246 261 252 244 214 206 187 162 164 109 29 37 28 28 43 60 61 60 77 100 115 120 120 121 152 83 64 60 61 72 101 123 133 140 156 167 162 162 160 177
227 226 220 237 217 272 232 228 274 246 245 247 236 221 206 189 173 168 169 150 58 48 60 52 66 59 54 70 99 119 103 109 89 70 71 66 56 56 58 65 81 113 129 139 151 154 158 168 174
174 59 28 38 89 255 218 201 263 225 221 226 226 218 204 184 177 171 142 86 56 48 61 66 73 60 52 63 76 105 109 100 88 77 92 97 73 54 47 60 81 113 134 164 181 178 173 183 173
111 98 31 337 290 248 217 218 248 240 219 209 205 201 200 185 176 164 135 103 77 60 56 64 76 64 51 61 65 70 101 122 129 149 182 181 136 46 277 281 235 207 198 184 161 175 192 178 170
194 161 171 206 233 272 256 233 250 250 207 187 178 176 172 186 184 175 173 160 141 101 76 77 83 71 53 55 52 52 58 93 125 150 209 213 214 237 235 219 233 242 160 146 154 173 201 167 169
165 201 186 157 249 268 255 264 286 231 200 187 173 176 192 200 196 187 179 162 148 125 102 106 106 71 56 53 50 50 45 45 34 6 308 239 260 260 228 201 192 205 151 179 168 182 200 181 184
177 162 132 161 189 247 266 248 233 219 223 210 201 204 207 199 193 186 174 156 137 114 74 63 92 86 39 43 40 33 18 5 355 6 355 333 291 277 189 182 182 189 184 184 178 186 187 176 191
173 183 180 181 195 197 254 260 223 213 211 207 210 207 203 197 196 185 172 154 132 112 91 73 63 57 36 25 22 24 3 355 0 360 320 302 276 244 204 205 203 199 196 190 188 203 194 195 200
198 197 174 185 228 218 240 266 256 209 208 198 205 207 204 193 192 182 168 148 141 142 129 95 48 51 22 7 13 4 355 353 350 341 333 328 308 281 248 217 204 202 198 195 195 201 199 203 208